星链-31580 (STARLINK-31580 )

导读 | 豆包AI

STARLINK-31580是美国SpaceX星链星座的卫星,于2024年4月7日发射。它属于星链低轨互联网星座组网卫星,依托星链系统布局,为全球提供高速低延迟互联网覆盖服务,尤其支持偏远地区通信、移动网络连接等场景,延续星链批量部署、低轨运行的技术路径,推进美国近地轨道卫星互联网星座的规模建设。

基本信息
目录编号:
59434
目录名称:
STARLINK-31580
国际标识:
2024-065P
轨道中心:
EARTH
卫星名称:
星链-31580
卫星全名:
星链-31580 (STARLINK-31580 )
卫星状态:
在轨 (已飞行707 天)
发射日期:
2024-04-07 UTC
国别 :
美国 (US)
星等 :
--
轨道信息
数据来源 国际轨道数据 AOE轨道数据
星历时间 2026-03-15T06:14:12+0800
21小时前
查看轨道信息
2026-03-14T11:00:00+0800
1天前
查看轨道信息
半长轴 6853.294km 6853.335km
偏心率 0.0000852 0.0001265
轨道倾角 53.161° 53.158°
近地点辐角 71.612° 68.071°
升交点赤经 259.304° 263.028°
平近点角 288.498° 194.173°
近地点 474.573km 474.331km
远地点 475.741km 476.065km
周期 94.104分钟 94.105分钟
每日圈数 15.302195 15.302058
详细信息
固有亮度:
5
最大亮度:
1.5
卫星平台:
Starlink v2.0 mini
覆盖范围:
全球
运营商:
太空探索技术公司
运营商所在国:
美国
制造商(研发单位):
太空探索技术公司
制造商所在国:
美国
使用方式:
暂无
卫星简介
星链(Starlink)计划是由太空探索技术公司(SpaceX)提出的一个巨型低轨卫星互联网星座项目,计划在2019年至2024年间在太空搭建由约1.2万颗卫星组成的“星链”网络,其中1584颗将部署在地球上空550千米处的近地轨道,并从2020年开始工作。该卫星仍在工作。
2D轨道图
3D轨道图
轨道高度分析图
轨道倾角分析图
轨道综合分析图
查看轨道综合分析图